| time (UTC) | temp F | wind direction | speed knots | gust knots | rain 1hr in | rain 24hr in | rain mn in | humidity % | barometer mb |
| 20260901221621 | 100 | 223 | 3.5 | 10.4 | 0.00 | 0.00 | 0.00 | 36 | 1010.7 |
| 20260901215821 | 101 | 271 | 2.6 | 7.8 | 0.00 | 0.00 | 0.00 | 36 | 1010.9 |
| 20260901214921 | 100 | 247 | 1.7 | 5.2 | 0.00 | 0.00 | 0.00 | 38 | 1011.0 |
| 20260901214021 | 101 | 191 | 1.7 | 6.1 | 0.00 | 0.00 | 0.00 | 38 | 1011.1 |
| 20260901212221 | 99 | 214 | 2.6 | 7.0 | 0.00 | 0.00 | 0.00 | 36 | 1011.5 |
| 20260901210421 | 99 | 210 | 2.6 | 7.8 | 0.00 | 0.00 | 0.00 | 38 | 1011.9 |
| 20260901205521 | 98 | 205 | 0.9 | 6.1 | 0.00 | 0.00 | 0.00 | 39 | 1012.0 |
| 20260901204621 | 97 | 238 | 1.7 | 5.2 | 0.00 | 0.00 | 0.00 | 41 | 1012.1 |
| 20260901203721 | 97 | 164 | 2.6 | 8.7 | 0.00 | 0.00 | 0.00 | 41 | 1012.2 |
| 20260901202821 | 98 | 175 | 3.5 | 8.7 | 0.00 | 0.00 | 0.00 | 40 | 1012.3 |
| 20260901201921 | 99 | 272 | 4.3 | 10.4 | 0.00 | 0.00 | 0.00 | 39 | 1012.5 |
| 20260901201021 | 98 | 269 | 2.6 | 8.7 | 0.00 | 0.00 | 0.00 | 41 | 1012.6 |
| 20260901200121 | 97 | 258 | 1.7 | 7.8 | 0.00 | 0.00 | 0.00 | 42 | 1012.7 |
| 20260901195221 | 97 | 217 | 1.7 | 7.0 | 0.00 | 0.00 | 0.00 | 42 | 1012.8 |
| 20260901194321 | 96 | 242 | 2.6 | 6.1 | 0.00 | 0.00 | 0.00 | 43 | 1012.9 |
| 20260901193421 | 96 | 190 | 2.6 | 5.2 | 0.00 | 0.00 | 0.00 | 43 | 1013.0 |
| 20260901192521 | 95 | 179 | 2.6 | 7.8 | 0.00 | 0.00 | 0.00 | 44 | 1013.1 |
| 20260901191621 | 96 | 148 | 1.7 | 6.1 | 0.00 | 0.00 | 0.00 | 45 | 1013.3 |
| 20260901190721 | 95 | 37 | 2.6 | 4.3 | 0.00 | 0.00 | 0.00 | 45 | 1013.4 |
| 20260901185821 | 94 | 157 | 2.6 | 7.8 | 0.00 | 0.00 | 0.00 | 44 | 1013.7 |
| 20260901184921 | 94 | 177 | 1.7 | 6.1 | 0.00 | 0.00 | 0.00 | 46 | 1013.8 |
| 20260901184021 | 94 | 236 | 2.6 | 6.1 | 0.00 | 0.00 | 0.00 | 46 | 1013.9 |
| 20260901183121 | 93 | 183 | 2.6 | 7.0 | 0.00 | 0.00 | 0.00 | 47 | 1014.1 |
| 20260901182221 | 92 | 191 | 2.6 | 9.6 | 0.00 | 0.00 | 0.00 | 46 | 1014.1 |
| 20260901181321 | 93 | 222 | 1.7 | 7.0 | 0.00 | 0.00 | 0.00 | 49 | 1014.2 |
| 20260901180421 | 92 | 103 | 3.5 | 7.0 | 0.00 | 0.00 | 0.00 | 49 | 1014.2 |
| 20260901175521 | 91 | 144 | 2.6 | 8.7 | 0.00 | 0.00 | 0.00 | 50 | 1014.3 |
| 20260901174621 | 92 | 210 | 3.5 | 7.0 | 0.00 | 0.00 | 0.00 | 50 | 1014.3 |
| 20260901172821 | 90 | 168 | 2.6 | 7.8 | 0.00 | 0.00 | 0.00 | 51 | 1014.5 |
| 20260901171921 | 90 | 179 | 1.7 | 7.0 | 0.00 | 0.00 | 0.00 | 51 | 1014.5 |
| 20260901170121 | 89 | 168 | 2.6 | 7.8 | 0.00 | 0.00 | 0.00 | 52 | 1014.4 |
| 20260901165221 | 89 | 202 | 1.7 | 7.8 | 0.00 | 0.00 | 0.00 | 53 | 1014.3 |
| 20260901164321 | 88 | 174 | 1.7 | 5.2 | 0.00 | 0.00 | 0.00 | 54 | 1014.3 |
| 20260901163421 | 87 | 191 | 1.7 | 4.3 | 0.00 | 0.00 | 0.00 | 55 | 1014.3 |
| 20260901161621 | 87 | 174 | 2.6 | 6.1 | 0.00 | 0.00 | 0.00 | 55 | 1014.2 |
| 20260901160721 | 86 | 145 | 1.7 | 7.0 | 0.00 | 0.01 | 0.00 | 55 | 1014.2 |
| 20260901155821 | 86 | 162 | 2.6 | 7.0 | 0.00 | 0.02 | 0.00 | 55 | 1014.1 |
| 20260901154021 | 85 | 129 | 2.6 | 6.1 | 0.00 | 0.06 | 0.00 | 56 | 1014.0 |
| 20260901151321 | 83 | 103 | 1.7 | 6.1 | 0.00 | 0.11 | 0.00 | 61 | 1013.8 |
| 20260901150421 | 83 | 89 | 0.9 | 2.6 | 0.00 | 0.11 | 0.00 | 61 | 1013.9 |
| 20260901145521 | 82 | 87 | 1.7 | 3.5 | 0.00 | 0.11 | 0.00 | 63 | 1013.9 |
| 20260901144621 | 82 | 79 | 1.7 | 4.3 | 0.00 | 0.11 | 0.00 | 64 | 1013.9 |
| 20260901143721 | 81 | 68 | 1.7 | 3.5 | 0.00 | 0.11 | 0.00 | 65 | 1013.8 |
| 20260901141921 | 80 | 83 | 1.7 | 3.5 | 0.00 | 0.12 | 0.00 | 68 | 1013.8 |
| 20260901135221 | 78 | 0 | 0.0 | 0.0 | 0.00 | 0.12 | 0.00 | 70 | 1013.8 |
| 20260901134321 | 78 | 0 | 0.0 | 0.0 | 0.00 | 0.12 | 0.00 | 70 | 1013.6 |
| 20260901133421 | 78 | 0 | 0.0 | 0.0 | 0.00 | 0.12 | 0.00 | 71 | 1013.4 |
| 20260901131621 | 77 | 70 | 1.7 | 3.5 | 0.00 | 0.12 | 0.00 | 71 | 1013.0 |
| 20260901130721 | 77 | 73 | 1.7 | 4.3 | 0.00 | 0.12 | 0.00 | 71 | 1013.0 |
| 20260901125821 | 77 | 69 | 1.7 | 4.3 | 0.00 | 0.12 | 0.00 | 70 | 1013.1 |
| 20260901124920 | 78 | 75 | 1.7 | 3.5 | 0.00 | 0.12 | 0.00 | 70 | 1013.2 |
| 20260901124021 | 78 | 73 | 0.9 | 3.5 | 0.00 | 0.12 | 0.00 | 70 | 1013.1 |
| 20260901122221 | 78 | 68 | 0.9 | 3.5 | 0.00 | 0.12 | 0.00 | 69 | 1013.0 |
| 20260901121321 | 78 | 66 | 0.9 | 3.5 | 0.00 | 0.12 | 0.00 | 69 | 1012.9 |
| 20260901120420 | 78 | 64 | 0.9 | 3.5 | 0.00 | 0.12 | 0.00 | 69 | 1012.7 |
| 20260901115520 | 78 | 64 | 0.9 | 2.6 | 0.00 | 0.12 | 0.00 | 69 | 1012.6 |
| 20260901114620 | 78 | 59 | 0.9 | 3.5 | 0.00 | 0.12 | 0.00 | 68 | 1012.6 |
| 20260901113720 | 78 | 56 | 0.0 | 1.7 | 0.00 | 0.12 | 0.00 | 69 | 1012.6 |
| 20260901112821 | 78 | 0 | 0.0 | 0.0 | 0.00 | 0.12 | 0.00 | 70 | 1012.5 |
| 20260901111921 | 78 | 0 | 0.0 | 0.0 | 0.00 | 0.12 | 0.00 | 70 | 1012.5 |
| 20260901105220 | 78 | 127 | 0.9 | 2.6 | 0.00 | 0.12 | 0.00 | 69 | 1012.4 |
| 20260901104321 | 78 | 126 | 0.9 | 1.7 | 0.00 | 0.12 | 0.00 | 68 | 1012.5 |
| 20260901103421 | 78 | 126 | 0.9 | 2.6 | 0.00 | 0.12 | 0.00 | 68 | 1012.6 |
| 20260901102520 | 78 | 127 | 0.0 | 2.6 | 0.00 | 0.12 | 0.00 | 68 | 1012.6 |
| 20260901101620 | 78 | 0 | 0.0 | 0.0 | 0.00 | 0.12 | 0.00 | 69 | 1012.6 |
| 20260901100720 | 78 | 0 | 0.0 | 0.0 | 0.00 | 0.12 | 0.00 | 69 | 1012.6 |
| 20260901095820 | 79 | 0 | 0.0 | 0.0 | 0.00 | 0.12 | 0.00 | 70 | 1012.5 |
| 20260901094920 | 78 | 0 | 0.0 | 0.0 | 0.00 | 0.12 | 0.00 | 70 | 1012.6 |
| 20260901094020 | 78 | 0 | 0.0 | 0.0 | 0.00 | 0.12 | 0.00 | 71 | 1012.6 |
| 20260901093120 | 78 | 0 | 0.0 | 0.0 | 0.00 | 0.12 | 0.00 | 70 | 1012.7 |
| 20260901092220 | 79 | 0 | 0.0 | 0.0 | 0.00 | 0.12 | 0.00 | 70 | 1012.8 |
| 20260901091320 | 79 | 0 | 0.0 | 0.0 | 0.00 | 0.12 | 0.00 | 70 | 1012.8 |
| 20260901090420 | 79 | 0 | 0.0 | 0.0 | 0.00 | 0.12 | 0.00 | 70 | 1012.9 |
| 20260901085520 | 79 | 0 | 0.0 | 0.0 | 0.00 | 0.12 | 0.00 | 69 | 1012.9 |
| 20260901084620 | 79 | 0 | 0.0 | 0.0 | 0.00 | 0.12 | 0.00 | 69 | 1012.8 |
| 20260901083720 | 79 | 0 | 0.0 | 0.0 | 0.00 | 0.12 | 0.00 | 69 | 1012.9 |
| 20260901082820 | 80 | 136 | 0.0 | 1.7 | 0.00 | 0.12 | 0.00 | 68 | 1012.9 |
| 20260901081920 | 80 | 0 | 0.0 | 0.0 | 0.00 | 0.12 | 0.00 | 67 | 1012.8 |
| 20260901081020 | 80 | 137 | 0.9 | 2.6 | 0.00 | 0.12 | 0.00 | 66 | 1012.8 |
| 20260901080120 | 80 | 141 | 0.9 | 2.6 | 0.00 | 0.12 | 0.00 | 66 | 1012.7 |
| 20260901075220 | 80 | 136 | 0.9 | 7.8 | 0.00 | 0.12 | 0.00 | 65 | 1012.7 |
| 20260901073420 | 80 | 0 | 0.0 | 0.0 | 0.00 | 0.12 | 0.00 | 67 | 1012.8 |
| 20260901072520 | 80 | 97 | 0.0 | 1.7 | 0.00 | 0.12 | 0.00 | 67 | 1012.7 |
| 20260901070720 | 80 | 108 | 0.9 | 5.2 | 0.00 | 0.12 | 0.00 | 66 | 1012.7 |
| 20260901065820 | 81 | 101 | 0.9 | 5.2 | 0.00 | 0.12 | 0.12 | 65 | 1012.5 |
| 20260901064920 | 81 | 99 | 0.9 | 3.5 | 0.00 | 0.12 | 0.12 | 64 | 1012.4 |
| 20260901064020 | 81 | 110 | 0.9 | 5.2 | 0.00 | 0.12 | 0.12 | 63 | 1012.3 |
| 20260901063120 | 81 | 137 | 0.9 | 1.7 | 0.00 | 0.12 | 0.12 | 62 | 1012.4 |
| 20260901062220 | 82 | 121 | 0.9 | 3.5 | 0.00 | 0.12 | 0.12 | 61 | 1012.2 |
| 20260901061320 | 82 | 114 | 1.7 | 4.3 | 0.00 | 0.12 | 0.12 | 61 | 1012.3 |
| 20260901060420 | 82 | 105 | 1.7 | 3.5 | 0.00 | 0.12 | 0.12 | 59 | 1012.3 |
| 20260901055520 | 82 | 107 | 0.9 | 3.5 | 0.00 | 0.12 | 0.12 | 58 | 1012.3 |
| 20260901053720 | 82 | 119 | 0.9 | 1.7 | 0.00 | 0.12 | 0.12 | 56 | 1012.3 |
| 20260901052820 | 83 | 119 | 0.9 | 3.5 | 0.00 | 0.12 | 0.12 | 56 | 1012.3 |
| 20260901051920 | 83 | 122 | 0.0 | 3.5 | 0.00 | 0.12 | 0.12 | 55 | 1012.2 |
| 20260901050120 | 83 | 129 | 0.0 | 2.6 | 0.00 | 0.12 | 0.12 | 54 | 1012.2 |
| 20260901045220 | 84 | 151 | 1.7 | 5.2 | 0.00 | 0.12 | 0.12 | 53 | 1012.3 |
| 20260901044320 | 84 | 139 | 0.9 | 5.2 | 0.00 | 0.12 | 0.12 | 53 | 1012.2 |
| 20260901043420 | 84 | 127 | 0.0 | 3.5 | 0.00 | 0.12 | 0.12 | 51 | 1012.2 |
| 20260901041620 | 84 | 160 | 1.7 | 4.3 | 0.00 | 0.12 | 0.12 | 49 | 1012.3 |
| 20260901035820 | 85 | 146 | 1.7 | 7.0 | 0.00 | 0.12 | 0.12 | 51 | 1011.9 |
| 20260901034920 | 85 | 153 | 1.7 | 3.5 | 0.00 | 0.12 | 0.12 | 51 | 1012.0 |
| 20260901033120 | 86 | 160 | 1.7 | 6.1 | 0.00 | 0.12 | 0.12 | 51 | 1011.8 |
| 20260901032220 | 86 | 181 | 1.7 | 5.2 | 0.00 | 0.12 | 0.12 | 48 | 1011.8 |
| 20260901031320 | 86 | 183 | 1.7 | 3.5 | 0.00 | 0.12 | 0.12 | 48 | 1011.6 |
| 20260901030420 | 86 | 177 | 1.7 | 5.2 | 0.00 | 0.12 | 0.12 | 47 | 1011.3 |
| 20260901025520 | 86 | 197 | 0.9 | 3.5 | 0.00 | 0.12 | 0.12 | 47 | 1011.3 |
| 20260901024620 | 85 | 228 | 0.0 | 1.7 | 0.00 | 0.12 | 0.12 | 48 | 1011.1 |
| 20260901023720 | 85 | 229 | 0.0 | 0.9 | 0.00 | 0.12 | 0.12 | 47 | 1011.1 |
| 20260901022820 | 86 | 229 | 0.9 | 1.7 | 0.00 | 0.12 | 0.12 | 47 | 1011.1 |
| 20260901021020 | 86 | 227 | 0.0 | 2.6 | 0.00 | 0.12 | 0.12 | 47 | 1010.9 |
| 20260901020120 | 86 | 0 | 0.0 | 0.0 | 0.00 | 0.12 | 0.12 | 46 | 1010.6 |
| 20260901014320 | 86 | 181 | 0.0 | 1.7 | 0.00 | 0.12 | 0.12 | 45 | 1010.7 |
| 20260901013420 | 86 | 181 | 0.0 | 1.7 | 0.00 | 0.12 | 0.12 | 46 | 1010.6 |
| 20260901012520 | 87 | 181 | 0.9 | 2.6 | 0.00 | 0.12 | 0.12 | 46 | 1010.5 |
| 20260901010720 | 88 | 189 | 0.9 | 4.3 | 0.00 | 0.12 | 0.12 | 45 | 1010.8 |
| 20260901005820 | 87 | 131 | 0.9 | 2.6 | 0.00 | 0.12 | 0.12 | 46 | 1010.8 |
| 20260901004920 | 88 | 122 | 0.9 | 7.0 | 0.00 | 0.12 | 0.12 | 44 | 1010.8 |
| 20260901004020 | 88 | 148 | 1.7 | 5.2 | 0.00 | 0.12 | 0.12 | 44 | 1010.8 |
| 20260901003120 | 88 | 134 | 1.7 | 5.2 | 0.00 | 0.12 | 0.12 | 44 | 1010.9 |
| 20260901000420 | 88 | 109 | 2.6 | 6.1 | 0.00 | 0.12 | 0.12 | 43 | 1011.2 |
| 20260831235519 | 89 | 110 | 2.6 | 7.0 | 0.00 | 0.12 | 0.12 | 42 | 1011.1 |
| 20260831234619 | 89 | 103 | 2.6 | 6.1 | 0.00 | 0.12 | 0.12 | 45 | 1011.2 |
| 20260831233719 | 89 | 115 | 2.6 | 7.0 | 0.00 | 0.12 | 0.12 | 46 | 1011.4 |
| 20260831232819 | 89 | 135 | 3.5 | 6.1 | 0.00 | 0.12 | 0.12 | 46 | 1011.3 |
| 20260831230120 | 88 | 123 | 4.3 | 10.4 | 0.00 | 0.12 | 0.12 | 48 | 1011.4 |
| 20260831225219 | 88 | 124 | 4.3 | 9.6 | 0.00 | 0.12 | 0.12 | 48 | 1011.7 |
| 20260831224320 | 89 | 132 | 4.3 | 10.4 | 0.00 | 0.12 | 0.12 | 48 | 1011.7 |
| 20260831223420 | 88 | 104 | 4.3 | 10.4 | 0.00 | 0.12 | 0.12 | 48 | 1011.7 |
| 20260831222520 | 88 | 105 | 3.5 | 10.4 | 0.00 | 0.12 | 0.12 | 49 | 1011.9 |